GW1261 Weather Reports


Display with metric or nautical units.
time (UTC)temp
F
wind
direction
speed
MPH
gust
MPH
rain 1hr
in
rain 24hr
in
rain mn
in
humidity
%
barometer
mb
20260831225443 75 196 0.0 0.0 0.00 0.00 0.00 99 975.0
20260831224938 75 196 0.0 0.0 0.00 0.00 0.00 99 975.0
20260831224437 76 196 0.0 0.0 0.00 0.00 0.00 99 975.1
20260831223932 76 196 0.0 0.0 0.00 0.00 0.00 99 975.1
20260831223428 76 196 0.0 0.0 0.00 0.00 0.00 99 974.8
20260831222925 76 196 0.0 0.0 0.00 0.00 0.00 99 974.7
20260831222420 76 196 0.0 0.0 0.00 0.00 0.00 99 974.8
20260831221914 76 196 0.0 0.0 0.00 0.00 0.00 99 974.6
20260831221411 76 196 0.0 0.0 0.00 0.00 0.00 99 975.0
20260831220905 76 196 0.0 0.0 0.00 0.00 0.00 99 974.8
20260831220355 76 196 0.0 0.0 0.00 0.00 0.00 99 974.7
20260831215850 76 196 0.0 0.0 0.00 0.00 0.00 99 974.9
20260831215346 76 196 0.0 0.0 0.00 0.00 0.00 99 974.6
20260831214842 76 196 0.0 0.0 0.00 0.00 0.00 99 974.6
20260831214339 76 196 0.0 0.0 0.00 0.00 0.00 99 974.7
20260831213834 76 196 0.0 0.0 0.00 0.00 0.00 99 974.8
20260831213331 76 196 0.0 0.0 0.00 0.00 0.00 99 974.7
20260831212826 76 196 0.0 0.0 0.00 0.00 0.00 99 974.7
20260831212322 76 196 0.0 0.0 0.00 0.00 0.00 99 974.7
20260831211821 76 196 0.0 0.0 0.00 0.00 0.00 99 974.7
20260831211316 76 196 0.0 0.0 0.00 0.00 0.00 99 974.6
20260831210815 76 196 0.0 0.0 0.00 0.00 0.00 99 974.5
20260831210312 76 196 0.0 0.0 0.00 0.00 0.00 99 974.3
20260831205811 76 196 0.0 0.0 0.00 0.00 0.00 99 974.6
20260831205308 76 196 0.0 0.0 0.00 0.00 0.00 99 974.5
20260831204802 76 196 0.0 0.0 0.00 0.00 0.00 99 974.5
20260831204301 76 192 0.0 0.0 0.00 0.00 0.00 99 974.7
20260831203801 77 196 0.0 0.0 0.00 0.00 0.00 99 974.4
20260831203255 77 195 0.0 0.0 0.00 0.00 0.00 99 974.4
20260831202753 77 196 0.0 0.0 0.00 0.00 0.00 99 974.6
20260831202248 77 196 0.0 0.0 0.00 0.00 0.00 99 974.5
20260831201743 77 196 0.0 0.0 0.00 0.00 0.00 99 974.7
20260831201242 77 196 0.0 0.0 0.00 0.00 0.00 99 974.7
20260831200738 77 196 0.0 0.0 0.00 0.00 0.00 99 974.5
20260831200232 77 196 0.0 0.0 0.00 0.00 0.00 99 974.5
20260831195728 77 196 0.0 0.0 0.00 0.00 0.00 99 974.5
20260831195224 77 196 0.0 0.0 0.00 0.00 0.00 99 974.7
20260831194718 77 196 0.0 0.0 0.00 0.00 0.00 99 974.8
20260831194214 77 196 0.0 0.0 0.00 0.00 0.00 99 974.9
20260831193707 77 196 0.0 0.0 0.00 0.00 0.00 99 974.6
20260831193203 76 196 0.0 0.0 0.00 0.00 0.00 99 974.7
20260831192658 76 196 0.0 0.0 0.00 0.00 0.00 99 974.6
20260831192153 76 196 0.0 0.0 0.00 0.00 0.00 99 974.7
20260831191649 76 196 0.0 0.0 0.00 0.00 0.00 99 974.8
20260831191145 76 196 0.0 0.0 0.00 0.00 0.00 99 975.0
20260831190639 76 196 0.0 0.0 0.00 0.00 0.00 99 974.8
20260831190138 76 196 0.0 0.0 0.00 0.00 0.00 99 974.9
20260831185634 77 196 0.0 0.0 0.00 0.00 0.00 99 974.9
20260831185130 77 196 0.0 0.0 0.00 0.00 0.00 99 975.0
20260831184630 77 196 0.0 0.0 0.00 0.00 0.00 99 975.2
20260831184126 77 196 0.0 0.0 0.00 0.00 0.00 99 974.9
20260831183625 77 196 0.0 0.0 0.00 0.00 0.00 99 975.1
20260831183124 77 196 0.0 0.0 0.00 0.00 0.00 99 975.0
20260831182623 77 196 0.0 0.0 0.00 0.00 0.00 99 975.1
20260831182120 77 196 0.0 0.0 0.00 0.00 0.00 99 975.3
20260831181619 77 196 0.0 0.0 0.00 0.00 0.00 99 975.2
20260831181114 77 196 0.0 0.0 0.00 0.00 0.00 99 975.0
20260831180609 77 196 0.0 0.0 0.00 0.00 0.00 99 975.0
20260831180104 77 196 0.0 0.0 0.00 0.00 0.00 99 975.0
20260831175559 77 196 0.0 0.0 0.00 0.00 0.00 99 975.1
20260831175056 77 196 0.0 0.0 0.00 0.00 0.00 99 975.1
20260831174550 77 196 0.0 0.0 0.00 0.00 0.00 99 975.0
20260831174044 77 196 0.0 0.0 0.00 0.00 0.00 99 975.1
20260831173543 77 196 0.0 0.0 0.00 0.00 0.00 99 975.1
20260831173039 77 196 0.0 0.0 0.00 0.00 0.00 99 975.2
20260831172534 77 196 0.0 0.0 0.00 0.00 0.00 99 975.1
20260831172029 77 176 0.0 0.0 0.00 0.00 0.00 99 975.2
20260831171524 77 176 0.0 0.0 0.00 0.00 0.00 99 975.1
20260831171021 77 176 0.0 0.0 0.00 0.00 0.00 99 975.2
20260831170517 77 176 0.0 0.0 0.00 0.00 0.00 99 975.3
20260831170015 77 186 0.0 0.0 0.00 0.00 0.00 99 975.2
20260831165514 77 175 0.0 0.0 0.00 0.00 0.00 99 975.3
20260831165012 77 188 0.0 0.0 0.00 0.00 0.00 99 975.4
20260831164507 77 188 0.0 0.0 0.00 0.00 0.00 99 975.1
20260831164002 77 196 0.0 0.0 0.00 0.00 0.00 99 975.2
20260831163457 77 203 0.0 0.0 0.00 0.00 0.00 99 975.2
20260831162956 77 179 0.0 0.0 0.00 0.00 0.00 99 975.1
20260831162452 77 203 0.0 0.0 0.00 0.00 0.00 99 975.2
20260831161949 77 201 0.0 0.0 0.00 0.00 0.00 99 975.2
20260831161446 77 196 0.0 0.0 0.00 0.00 0.00 99 975.2
20260831160942 77 196 0.0 0.0 0.00 0.00 0.00 99 975.3
20260831160441 77 196 0.0 0.0 0.00 0.00 0.00 99 975.3
20260831155936 77 196 0.0 0.0 0.00 0.00 0.00 99 975.2
20260831155431 77 196 0.0 0.0 0.00 0.00 0.00 99 975.4
20260831154927 77 196 0.0 0.0 0.00 0.00 0.00 99 975.4
20260831154423 77 196 0.0 0.0 0.00 0.00 0.00 99 975.3
20260831153921 77 196 0.0 0.0 0.00 0.00 0.00 99 975.6
20260831153417 77 196 0.0 0.0 0.00 0.00 0.00 99 975.3
20260831152913 77 195 0.0 0.0 0.00 0.00 0.00 99 975.4
20260831152409 77 196 0.0 0.0 0.00 0.00 0.00 99 975.5
20260831151904 77 196 0.0 0.0 0.00 0.00 0.00 99 975.2
20260831151402 77 195 0.0 0.0 0.00 0.00 0.00 99 975.2
20260831150858 77 196 0.0 0.0 0.00 0.00 0.00 99 975.2
20260831150353 77 196 0.0 0.0 0.00 0.00 0.00 99 975.1
20260831145852 77 195 0.0 0.0 0.00 0.00 0.00 99 975.1
20260831145349 77 196 0.0 0.0 0.00 0.00 0.00 99 975.1
20260831144844 77 193 0.0 0.0 0.00 0.00 0.00 99 974.8
20260831144340 77 195 0.0 0.0 0.00 0.00 0.00 99 974.7
20260831143835 77 195 0.0 0.0 0.00 0.00 0.00 99 974.5
20260831143330 77 195 0.0 0.0 0.00 0.00 0.00 99 974.4
20260831142825 77 195 0.0 0.0 0.00 0.00 0.00 99 974.4
20260831142321 77 175 0.0 0.0 0.00 0.00 0.00 99 974.4
20260831141820 78 184 0.0 0.0 0.00 0.00 0.00 99 974.4
20260831141315 78 192 0.0 0.0 0.00 0.00 0.00 99 974.3
20260831140810 78 171 0.0 0.0 0.00 0.00 0.00 99 974.0
20260831140304 78 180 0.0 0.0 0.00 0.00 0.00 99 974.2
20260831135802 78 172 0.0 0.0 0.00 0.00 0.00 99 974.1
20260831135258 78 171 0.0 0.0 0.00 0.00 0.00 99 973.9
20260831134753 77 192 0.0 0.0 0.00 0.00 0.00 99 973.9
20260831134250 77 192 0.0 0.0 0.00 0.00 0.00 99 973.6
20260831133749 77 192 0.0 0.0 0.00 0.00 0.00 99 973.8
20260831133249 78 195 0.0 0.0 0.00 0.00 0.00 99 973.6
20260831132744 78 195 0.0 0.0 0.00 0.00 0.00 99 973.6
20260831132239 78 196 0.0 0.0 0.00 0.00 0.00 99 973.6
20260831131738 78 196 0.0 0.0 0.00 0.00 0.00 99 973.6
20260831131235 78 196 0.0 0.0 0.00 0.00 0.00 99 973.5
20260831130730 78 196 0.0 0.0 0.00 0.00 0.00 99 973.7
20260831130225 78 196 0.0 0.0 0.00 0.00 0.00 99 973.4
20260831125723 78 196 0.0 0.0 0.00 0.00 0.00 99 973.6
20260831125220 78 196 0.0 0.0 0.00 0.00 0.00 99 973.5
20260831124714 78 196 0.0 0.0 0.00 0.00 0.00 99 973.4
20260831124211 78 195 0.0 0.0 0.00 0.00 0.00 99 973.3
20260831123710 78 170 0.0 0.0 0.00 0.00 0.00 99 973.4
20260831123209 78 181 0.0 0.0 0.00 0.00 0.00 99 973.0
20260831122704 79 186 0.0 0.0 0.00 0.00 0.00 99 973.0
20260831122200 79 186 0.0 0.0 0.00 0.00 0.00 99 973.0
20260831121659 79 186 0.0 0.0 0.00 0.00 0.00 99 972.9
20260831121155 79 182 0.0 0.0 0.00 0.00 0.00 99 973.0
20260831120650 79 164 0.0 1.0 0.00 0.00 0.00 98 972.8
20260831120145 80 164 0.0 0.0 0.00 0.00 0.00 98 972.6
20260831115641 80 164 0.0 0.0 0.00 0.00 0.00 97 972.5
20260831115137 80 150 0.0 3.0 0.00 0.00 0.00 96 972.4
20260831114636 80 155 1.0 1.0 0.00 0.00 0.00 96 972.4
20260831114131 80 137 0.0 1.0 0.00 0.00 0.00 96 972.4
20260831113630 81 76 1.0 2.0 0.00 0.00 0.00 95 972.3
20260831113126 82 79 1.0 2.0 0.00 0.00 0.00 93 972.3
20260831112625 82 154 0.0 1.0 0.00 0.00 0.00 90 972.2
20260831112120 82 117 0.0 1.0 0.00 0.00 0.00 89 972.1
20260831111616 82 211 0.0 0.0 0.00 0.00 0.00 92 972.1
20260831111112 82 211 0.0 0.0 0.00 0.00 0.00 92 972.1
20260831110607 82 211 0.0 0.0 0.00 0.00 0.00 91 972.1
20260831105601 83 205 0.0 0.0 0.00 0.00 0.00 90 971.9
20260831105055 83 204 0.0 0.0 0.00 0.00 0.00 91 972.0
20260831072510 84 219 0.0 0.0 0.00 0.00 0.00 92 972.1
20260831072006 84 219 0.0 0.0 0.00 0.00 0.00 92 972.1
20260831071505 84 219 0.0 0.0 0.00 0.00 0.00 92 972.2
20260831071000 84 203 0.0 0.0 0.00 0.00 0.00 95 972.4
20260831070459 84 203 0.0 0.0 0.00 0.00 0.00 95 972.2
20260831065958 84 203 0.0 0.0 0.00 0.00 0.00 95 972.5
20260831065457 84 203 0.0 0.0 0.00 0.00 0.00 95 972.4
20260831064951 84 203 0.0 0.0 0.00 0.00 0.00 95 972.5
20260831064441 84 183 0.0 0.0 0.00 0.00 0.00 93 972.5
20260831063936 84 181 0.0 0.0 0.00 0.00 0.00 94 972.4
20260831063431 84 181 0.0 0.0 0.00 0.00 0.00 92 972.4
20260831062925 84 176 0.0 0.0 0.00 0.00 0.00 88 972.6
20260831062422 84 181 0.0 0.0 0.00 0.00 0.00 94 972.6
20260831061920 84 181 0.0 0.0 0.00 0.00 0.00 93 972.7
20260831061419 84 170 0.0 0.0 0.00 0.00 0.00 93 973.0
20260831060915 84 170 0.0 0.0 0.00 0.00 0.00 94 973.1
20260831060410 84 170 0.0 0.0 0.00 0.00 0.00 91 972.8
20260831055909 84 161 0.0 0.0 0.00 0.00 0.00 91 973.1
20260831055404 84 154 0.0 1.0 0.00 0.00 0.00 91 973.2
20260831054900 83 180 0.0 0.0 0.00 0.00 0.00 95 973.2
20260831054355 82 180 0.0 0.0 0.00 0.00 0.00 96 973.4
20260831053854 83 180 0.0 0.0 0.00 0.00 0.00 98 973.2
20260831053352 83 181 0.0 0.0 0.00 0.00 0.00 99 973.5
20260831052847 83 84 0.0 0.0 0.00 0.00 0.00 95 973.5
20260831052346 82 210 0.0 0.0 0.00 0.00 0.00 99 973.4
20260831051845 82 195 0.0 0.0 0.00 0.00 0.00 99 973.8
20260831051343 81 216 0.0 0.0 0.00 0.00 0.00 99 973.9
20260831050838 80 217 0.0 0.0 0.00 0.00 0.00 99 973.7
20260831050337 79 173 0.0 0.0 0.00 0.00 0.00 99 973.8
20260831045832 79 177 0.0 0.0 0.00 0.00 0.00 99 974.0
20260831045326 79 177 0.0 0.0 0.00 0.00 0.00 99 973.9
20260831044821 79 177 0.0 0.0 0.00 0.00 0.00 99 974.0
20260831044316 79 193 0.0 0.0 0.00 0.00 0.00 99 974.0
20260831043812 77 177 0.0 0.0 0.00 0.00 0.00 99 974.1
20260831043311 77 177 0.0 0.0 0.00 0.00 0.00 99 974.2
20260831042806 77 177 0.0 0.0 0.00 0.00 0.00 99 974.0
20260831042300 77 177 0.0 0.0 0.00 0.00 0.00 99 974.2
20260831041756 77 177 0.0 0.0 0.00 0.00 0.00 99 974.3
20260831041255 77 177 0.0 0.0 0.00 0.00 0.00 99 974.2
20260831040750 78 199 0.0 0.0 0.00 0.00 0.00 99 974.3
20260831040249 78 199 0.0 0.0 0.00 0.00 0.00 99 974.4
20260831035748 78 199 0.0 0.0 0.00 0.00 0.00 99 974.4
20260831035247 78 199 0.0 0.0 0.00 0.00 0.00 99 974.5
20260831034746 78 199 0.0 0.0 0.00 0.00 0.00 99 974.5
20260831034242 78 199 0.0 0.0 0.00 0.00 0.00 99 974.7
20260831033737 78 199 0.0 0.0 0.00 0.00 0.00 99 974.6
20260831033237 78 199 0.0 0.0 0.00 0.00 0.00 99 974.6
20260831032732 78 199 0.0 0.0 0.00 0.00 0.00 99 975.1
20260831032227 78 196 0.0 0.0 0.00 0.00 0.00 99 974.7
20260831031722 78 202 0.0 0.0 0.00 0.00 0.00 99 974.9
20260831031217 78 202 0.0 0.0 0.00 0.00 0.00 99 974.9
20260831030716 78 202 0.0 0.0 0.00 0.00 0.00 99 974.8
20260831030214 78 202 0.0 0.0 0.00 0.00 0.00 99 974.7
20260831025708 78 202 0.0 0.0 0.00 0.00 0.00 99 975.0
20260831025203 78 202 0.0 0.0 0.00 0.00 0.00 99 974.8
20260831024659 78 202 0.0 0.0 0.00 0.00 0.00 99 974.8
20260831024157 78 202 0.0 0.0 0.00 0.00 0.00 99 974.9
20260831023656 77 216 0.0 0.0 0.00 0.00 0.00 99 974.7
20260831023155 77 216 0.0 0.0 0.00 0.00 0.00 99 974.7
20260831022651 77 215 0.0 0.0 0.00 0.00 0.00 99 975.0
20260831022145 78 211 0.0 0.0 0.00 0.00 0.00 99 974.7
20260831021644 78 211 0.0 0.0 0.00 0.00 0.00 99 974.7
20260831021134 78 211 0.0 0.0 0.00 0.00 0.00 99 974.7
20260831020630 78 211 0.0 0.0 0.00 0.00 0.00 99 974.7
20260831020124 78 211 0.0 0.0 0.00 0.00 0.00 99 974.8
20260831015615 78 211 0.0 0.0 0.00 0.00 0.00 99 974.9
20260831015114 78 211 0.0 0.0 0.00 0.00 0.00 99 974.8
20260831014609 77 211 0.0 0.0 0.00 0.00 0.00 99 974.7
20260831014105 77 211 0.0 0.0 0.00 0.00 0.00 99 974.8
20260831013601 76 211 0.0 0.0 0.00 0.00 0.00 99 974.6
20260831013100 77 201 0.0 0.0 0.00 0.00 0.00 99 974.7
20260831012554 77 210 0.0 0.0 0.00 0.00 0.00 99 974.5
20260831012049 77 211 0.0 0.0 0.00 0.00 0.00 99 974.6
20260831011549 76 210 0.0 0.0 0.00 0.00 0.00 99 974.6
20260831011044 76 214 0.0 0.0 0.00 0.00 0.00 99 974.6
20260831010539 76 213 0.0 0.0 0.00 0.00 0.00 99 974.6
20260831010036 76 213 0.0 0.0 0.00 0.00 0.00 99 974.2
20260831005531 76 212 0.0 0.0 0.00 0.00 0.00 99 974.2
20260831005030 76 212 0.0 0.0 0.00 0.00 0.00 99 974.3
20260831004527 76 203 0.0 0.0 0.00 0.00 0.00 99 974.2
20260831004022 76 203 0.0 0.0 0.00 0.00 0.00 99 974.4
20260831003518 75 203 0.0 0.0 0.00 0.00 0.00 99 974.2
20260831003014 75 203 0.0 0.0 0.00 0.00 0.00 99 974.3
20260831002512 75 203 0.0 0.0 0.00 0.00 0.00 99 974.0
20260831002008 75 200 0.0 0.0 0.00 0.00 0.00 99 974.2
20260831001503 75 200 0.0 0.0 0.00 0.00 0.00 99 974.1
20260831000959 75 200 0.0 0.0 0.00 0.00 0.00 99 974.1
20260831000455 75 200 0.0 0.0 0.00 0.00 0.00 99 974.0
20260830235953 75 200 0.0 0.0 0.00 0.00 0.00 99 974.2
20260830235448 75 200 0.0 0.0 0.00 0.00 0.00 99 974.0
20260830234944 75 200 0.0 0.0 0.00 0.00 0.00 99 974.1
20260830234438 74 208 0.0 0.0 0.00 0.00 0.00 99 973.7
20260830233934 74 208 0.0 0.0 0.00 0.00 0.00 99 973.8
20260830233430 74 208 0.0 0.0 0.00 0.00 0.00 99 973.5
20260830232925 74 208 0.0 0.0 0.00 0.00 0.00 99 973.4
20260830232421 74 208 0.0 0.0 0.00 0.00 0.00 99 973.6
20260830231917 74 208 0.0 0.0 0.00 0.00 0.00 99 973.3
20260830231412 74 208 0.0 0.0 0.00 0.00 0.00 99 973.4
20260830230911 74 208 0.0 0.0 0.00 0.00 0.00 99 973.5
20260830230407 74 208 0.0 0.0 0.00 0.00 0.00 99 973.6